This demonstration page uses our WeatherBlox Daily Observations layout. Learn more.

Left ArrowRight Arrow

32.84923, -109.75925

Hourly Observations for December 7, 2022

Temp ( °F °C ) Dew Point ( °F °C ) Humidity (%) Winds ( mph kmh ) Pressure ( in mb ) Visibility ( mi km ) Precip ( " mm )
12:51 am 00:51 Clear 47 8.3 43 6.1 86 86 Calm 29.98 1015 10 16 0.00 0.00
1:51 am 01:51 Clear 44 6.7 42 5.6 93 93 NE 3 6 29.99 1016 10 16 0.00 0.00
2:51 am 02:51 Mostly Clear 44 6.7 42 5.6 93 93 Calm 29.99 1016 10 16 0.00 0.00
3:51 am 03:51 Mostly Clear 43 6.1 41 5 93 93 ENE 3 6 29.99 1016 10 16 0.00 0.00
4:51 am 04:51 Mostly Clear 42 5.6 41 5 96 96 Calm 30.01 1016 10 16 0.00 0.00
5:51 am 05:51 Mostly Cloudy 42 5.6 41 5 96 96 ESE 3 6 30.04 1017 10 16 0.00 0.00
6:51 am 06:51 Cloudy 43 6.1 42 5.6 97 97 Calm 30.06 1018 10 16 0.00 0.00
7:51 am 07:51 Cloudy 45 7.2 43 6.1 93 93 Calm 30.07 1018 10 16 0.00 0.00
8:51 am 08:51 Cloudy 49 9.4 45 7.2 86 86 W 3 6 30.08 1019 10 16 0.00 0.00
9:51 am 09:51 Mostly Cloudy 51 10.6 44 6.7 77 77 S 3 6 30.10 1019 10 16 0.00 0.00
10:51 am 10:51 Partly Cloudy 58 14.4 43 6.1 57 57 ESE 6 9 30.08 1019 10 16 0.00 0.00
11:51 am 11:51 Partly Cloudy 60 15.6 43 6.1 53 53 E 7 11 30.06 1018 10 16 0.00 0.00
12:51 pm 12:51 Mostly Cloudy 62 16.7 42 5.6 48 48 Calm 30.03 1017 10 16 0.00 0.00
1:51 pm 13:51 Cloudy 58 14.4 47 8.3 67 67 WNW 16 26 30.03 1017 10 16 0.00 0.00
2:04 pm 14:04 Cloudy 58 14.4 47 8.3 67 67 WNW 15 24 30.02 1017 10 16 0.00 0.00
2:51 pm 14:51 Mostly Cloudy 56 13.3 48 8.9 75 75 W 10 17 30.04 1017 10 16 0.00 0.00
3:51 pm 15:51 Partly Cloudy 58 14.4 45 7.2 62 62 NW 10 17 30.05 1018 10 16 0.00 0.00
4:51 pm 16:51 Sunny 55 12.8 47 8.3 74 74 SSE 6 9 30.06 1018 10 16 0.00 0.00
5:51 pm 17:51 Clear 51 10.6 46 7.8 83 83 Calm 30.10 1019 10 16 0.00 0.00
6:51 pm 18:51 Clear 50 10 45 7.2 83 83 W 5 7 30.11 1020 10 16 0.00 0.00
7:51 pm 19:51 Mostly Cloudy 49 9.4 44 6.7 83 83 WSW 3 6 30.13 1020 10 16 0.00 0.00
8:51 pm 20:51 Mostly Cloudy 48 8.9 44 6.7 86 86 WNW 6 9 30.14 1021 10 16 0.00 0.00
9:51 pm 21:51 Cloudy 48 8.9 44 6.7 86 86 Calm 30.16 1021 10 16 0.00 0.00
10:51 pm 22:51 Partly Cloudy 47 8.3 44 6.7 90 90 ESE 5 7 30.16 1022 10 16 0.00 0.00
11:51 pm 23:51 Clear 44 6.7 41 5 89 89 SE 3 6 30.18 1022 10 16 0.00 0.00

Powered by AerisWeather